Location: Favalello
(42.2939°N, 9.2706°E)
Time: 17:19:57
(UTC+00:00)

SL-16 R/B - Pass Details

Date: 06 December 2019
Orbit: 840 x 849 km, 71.0° (Epoch: 26 January)

Event Time Altitude Azimuth Distance (km) Brightness Sun altitude
Rises 18:15:03 0° 196° (SSW) 3,388 5.6 -26.0°
Reaches altitude 10° 18:17:29 10° 194° (SSW) 2,458 4.8 -26.4°
Enters shadow 18:22:19 62° 161° (SSE) 950 2.3 -27.3°
